This demonstration page uses our WeatherBlox Daily Observations layout. Learn more.

Hourly Observations for October 7, 2018

Temp ( °F °C ) Dew Point ( °F °C ) Humidity (%) Winds ( mph kmh ) Pressure ( in mb ) Visibility ( mi km ) Precip ( " mm )
12:15 am 00:15 Cloudy 48 9 40 4.5 74 74 ESE 8 13 30.12 1020 10 16.0934 0 0
12:35 am 00:35 Cloudy 47 8.6 40 4.7 77 77 ESE 12 19 30.12 1020 10 16.0934 0 0
12:55 am 00:55 Cloudy 47 8.5 40 4.7 77 77 ESE 9 15 30.12 1020 10 16.0934 0 0
1:15 am 01:15 Cloudy 47 8.1 41 4.9 80 80 E 13 20 30.15 1021 10 16.0934 0 0
1:35 am 01:35 Cloudy 46 7.5 41 5.1 85 85 E 12 19 30.15 1021 10 16.0934 0 0
1:55 am 01:55 Cloudy 45 7.1 42 5.4 89 89 ENE 10 17 30.12 1020 10 16.0934 0 0
2:15 am 02:15 Cloudy 44 6.7 42 5.5 92 92 E 10 17 30.15 1021 10 16.0934 0 0
2:35 am 02:35 Cloudy 44 6.5 42 5.6 94 94 E 12 19 30.15 1021 10 16.0934 0 0
2:55 am 02:55 Cloudy 44 6.5 42 5.8 95 95 ENE 9 15 30.15 1021 10 16.0934 0 0
3:15 am 03:15 Cloudy 44 6.5 43 5.9 96 96 ENE 13 20 30.09 1019 10 16.0934 0 0
3:35 am 03:35 Cloudy 44 6.5 43 6 97 97 E 10 17 30.09 1019 10 16.0934 0 0
3:55 am 03:55 Cloudy 44 6.5 42 5.8 95 95 E 12 19 30.09 1019 10 16.0934 0 0
4:15 am 04:15 Cloudy 44 6.4 43 5.9 97 97 ENE 10 17 30.12 1020 10 16.0934 0 0
4:35 am 04:35 Cloudy 43 6.2 42 5.7 97 97 ENE 10 17 30.12 1020 10 16.0934 0 0
4:55 am 04:55 Cloudy 43 6.2 42 5.7 97 97 ENE 12 19 30.06 1018 10 16.0934 0 0
5:15 am 05:15 Cloudy 43 6.2 42 5.7 97 97 ENE 8 13 30.12 1020 10 16.0934 0 0
5:35 am 05:35 Cloudy 43 6.2 42 5.8 97 97 ENE 9 15 30.12 1020 10 16.0934 0 0
5:55 am 05:55 Cloudy with Mist and Fog 43 6 43 6 100 100 ENE 9 15 30.12 1020 3 4.82802 0 0
6:15 am 06:15 Cloudy with Mist and Fog 43 6 43 6 100 100 ENE 8 13 30.12 1020 2 3.21868 0 0
6:35 am 06:35 Cloudy with Mist and Fog 43 6 43 6 100 100 ENE 10 17 30.12 1020 1.75 2.816345 0 0
6:55 am 06:55 Cloudy with Mist and Fog 42 5.8 42 5.8 100 100 E 8 13 30.15 1021 1.5 2.41401 0 0
7:15 am 07:15 Cloudy with Rain 42 5.8 42 5.8 100 100 ENE 12 19 30.12 1020 2.5 4.02335 0.03 0.762
7:35 am 07:35 Cloudy with Rain 42 5.8 42 5.8 100 100 E 10 17 30.12 1020 4 6.43736 0.08 2.032
7:55 am 07:55 Cloudy with Rain 42 5.8 42 5.8 100 100 ENE 7 11 30.12 1020 5 8.0467 0.11 2.794
8:15 am 08:15 Cloudy with Rain 42 5.8 42 5.8 100 100 ENE 8 13 30.12 1020 7 11.26538 0.02 0.508
8:35 am 08:35 Cloudy with Light Rain 43 6 43 6 100 100 ENE 8 13 30.12 1020 7 11.26538 0.02 0.508
8:55 am 08:55 Cloudy with Light Rain 43 6 43 6 100 100 ENE 9 15 30.12 1020 10 16.0934 0.02 0.508
9:15 am 09:15 Cloudy 43 6 43 6 100 100 ENE 10 17 30.12 1020 10 16.0934 0 0
9:35 am 09:35 Cloudy with Light Drizzle 43 6 43 6 100 100 ENE 12 19 30.12 1020 10 16.0934 0 0
9:55 am 09:55 Cloudy with Light Drizzle 43 6 43 6 100 100 NE 9 15 30.12 1020 7 11.26538 0 0
10:15 am 10:15 Cloudy 43 6.1 43 6.1 100 100 E 10 17 30.12 1020 10 16.0934 0 0
10:35 am 10:35 Cloudy with Mist and Fog 43 6.3 43 6.3 100 100 E 10 17 30.12 1020 2 3.21868 0 0
10:55 am 10:55 Cloudy with Light Drizzle 44 6.5 44 6.5 100 100 ENE 9 15 30.09 1019 3 4.82802 0 0
11:15 am 11:15 Cloudy with Rain 44 6.5 44 6.5 100 100 E 12 19 30.09 1019 5 8.0467 0.01 0.254
11:35 am 11:35 Cloudy with Mist and Fog 44 6.6 44 6.6 100 100 ENE 9 15 30.09 1019 5 8.0467 0.02 0.508
11:55 am 11:55 Cloudy with Mist and Fog 44 6.5 44 6.5 100 100 NE 8 13 30.09 1019 5 8.0467 0.02 0.508
12:15 pm 12:15 Cloudy 44 6.8 44 6.8 100 100 ENE 10 17 30.06 1018 7 11.26538 0 0
12:35 pm 12:35 Cloudy with Mist and Fog 44 6.8 44 6.8 100 100 ENE 10 17 30.06 1018 5 8.0467 0 0
12:55 pm 12:55 Cloudy with Nearby Thunderstorms 45 7 45 7 100 100 ENE 10 17 30.06 1018 7 11.26538 0 0
1:15 pm 13:15 Cloudy with Mist and Fog 44 6.8 44 6.8 100 100 E 9 15 30.06 1018 2.5 4.02335 0 0
1:35 pm 13:35 Cloudy with Nearby Thunderstorms 45 7 45 7 100 100 E 12 19 30.06 1018 1.5 2.41401 0 0
1:55 pm 13:55 Cloudy with Light Rain 45 7.2 45 7.2 100 100 E 13 20 30.03 1017 1 1.60934 0 0
2:15 pm 14:15 Cloudy with Mist and Fog 45 7.3 45 7.3 100 100 E 12 19 30.06 1018 2.5 4.02335 0 0
2:35 pm 14:35 Cloudy with Mist and Fog 45 7.2 45 7.2 100 100 E 10 17 30.03 1017 1.75 2.816345 0 0
2:55 pm 14:55 Cloudy with Mist and Fog 45 7.2 45 7.2 100 100 NE 7 11 30.03 1017 1.75 2.816345 0 0
3:15 pm 15:15 Cloudy with Light Thunderstorms 45 7.2 45 7.2 100 100 ENE 9 15 30.03 1017 1.75 2.816345 0 0
3:35 pm 15:35 Cloudy 45 7.2 45 7.2 100 100 E 14 22 30 1016 1.75 2.816345 0.11 2.794
3:55 pm 15:55 Cloudy 45 7.2 45 7.2 100 100 Calm 30.03 1017 2.5 4.02335 0.38 9.652
4:15 pm 16:15 Cloudy with Light Rain 45 7.3 45 7.3 100 100 E 9 15 30 1016 10 16.0934 0 0
4:35 pm 16:35 Cloudy 46 7.5 46 7.5 100 100 E 5 7 30.03 1017 10 16.0934 0 0
4:55 pm 16:55 Cloudy with Mist and Fog 46 7.6 46 7.6 100 100 E 13 20 30 1016 5 8.0467 0 0
5:15 pm 17:15 Cloudy with Mist and Fog 46 7.7 46 7.7 100 100 E 9 15 30 1016 4 6.43736 0 0
5:35 pm 17:35 Cloudy with Mist and Fog 46 7.8 46 7.8 100 100 ENE 8 13 30 1016 5 8.0467 0 0
5:55 pm 17:55 Cloudy with Mist and Fog 46 7.8 46 7.8 100 100 ENE 10 17 30 1016 2.5 4.02335 0 0
6:15 pm 18:15 Cloudy with Mist and Fog 46 7.8 46 7.8 100 100 E 3 6 30.03 1017 2.5 4.02335 0 0
6:35 pm 18:35 Cloudy with Fog 46 7.8 46 7.8 100 100 E 8 13 30 1016 0.5 0.80467 0 0
6:55 pm 18:55 Cloudy with Mist and Fog 46 7.8 46 7.8 100 100 ENE 8 13 30 1016 0.75 1.207005 0 0
7:15 pm 19:15 Cloudy with Fog 46 7.8 46 7.8 100 100 ENE 13 20 29.97 1015 0.5 0.80467 0 0
7:35 pm 19:35 Cloudy with Fog 46 7.8 46 7.8 100 100 ENE 8 13 30 1016 0.5 0.80467 0 0
7:55 pm 19:55 Cloudy with Fog 46 8 46 8 100 100 E 10 17 30 1016 0.5 0.80467 0 0
8:15 pm 20:15 Cloudy with Fog 46 8 46 8 100 100 ENE 9 15 30 1016 0.5 0.80467 0 0
8:35 pm 20:35 Cloudy with Fog 46 8 46 8 100 100 NE 7 11 30 1016 0.5 0.80467 0 0
8:55 pm 20:55 Cloudy with Mist and Fog 46 8 46 8 100 100 ENE 9 15 30 1016 1.25 2.011675 0 0
9:15 pm 21:15 Cloudy with Mist and Fog 46 8 46 8 100 100 NE 7 11 30 1016 1.75 2.816345 0 0
9:35 pm 21:35 Cloudy with Mist and Fog 46 8 46 8 100 100 ENE 7 11 30 1016 2.5 4.02335 0 0
9:55 pm 21:55 Cloudy with Mist and Fog 46 8 46 8 100 100 NE 7 11 30 1016 3 4.82802 0 0
10:15 pm 22:15 Cloudy with Mist and Fog 46 8 46 8 100 100 NE 7 11 30.03 1017 3 4.82802 0 0
10:35 pm 22:35 Cloudy with Mist and Fog 46 7.9 46 7.9 100 100 NNE 8 13 30 1016 2.5 4.02335 0 0
10:55 pm 22:55 Cloudy with Mist and Fog 46 7.8 46 7.8 100 100 NNE 9 15 30 1016 2 3.21868 0 0
11:15 pm 23:15 Cloudy with Mist and Fog 46 7.7 46 7.7 100 100 NNE 9 15 30 1016 2.5 4.02335 0 0
11:35 pm 23:35 Cloudy with Mist and Fog 46 7.7 46 7.7 100 100 NE 9 15 30 1016 4 6.43736 0 0
11:55 pm 23:55 Cloudy with Mist and Fog 46 7.7 46 7.7 100 100 NE 6 9 30 1016 3 4.82802 0 0

Powered by AerisWeather